User: anonymous   Login
Location: Fort Wayne
(41.1310°N, 85.1290°W)
Time: 14:14:20
(UTC-05:00)
Language:

IDEFIX/ARIANE 42P - Orbit

View from above orbital plane
View from above orbital plane
View from above satellite
View from above satellite

Ground track
Ground track

The orbit data is extracted from the following two-line orbital elements,

1 27422U 02021B   17017.15443757 -.00000065  00000-0 -96201-5 0  9990
2 27422  98.2277  25.8018 0011743 329.3191  30.7305 14.29252395765101
Epoch (UTC): 17 January 2017 03:42:23
Eccentricity: 0.0011743
inclination: 98.2277°
perigee height: 786 km
apogee height: 802 km
right ascension of ascending node: 25.8018°
argument of perigee: 329.3191°
revolutions per day: 14.29252395
mean anomaly at epoch: 30.7305°
orbit number at epoch: 76510

The dashed part of the orbit path shows where the satellite is in the earth's shadow,  

DLR